星链-32554 (STARLINK-32554)

导读

STARLINK-32554是美国太空探索技术公司(SpaceX)于2024年11月27日发射的Starlink(星链)卫星,隶属于Starlink Group 6-76任务组,由猎鹰9号(Falcon 9 Block 5)火箭在肯尼迪航天中心成功发射,发射天气条件极佳。作为星链低轨互联网星座的组成部分,该卫星运行于近地轨道,依托星链星座的Ku/Ka波段与激光星间链路,为全球提供低时延、高速的卫星互联网接入服务,助力SpaceX实现全球覆盖的卫星互联网布局目标。

基本信息
目录编号:
62136
目录名称:
STARLINK-32554
国际标识:
2024-222Y
轨道中心:
EARTH
卫星名称:
星链-32554
卫星全名:
星链-32554 (STARLINK-32554)
卫星状态:
在轨 (已飞行567 天)
发射日期:
2024-11-27 UTC
国别 :
美国 (US)
星等 :
--
轨道信息
数据来源 国际轨道数据
星历时间: 2026-06-16T23:27:30+0800
1天前
查看轨道信息
半长轴: 6861.161km
偏心率: 0.0000189
轨道倾角: 43.007°
近地点辐角 199.261°
升交点赤经 297.268°
平近点角 160.823°
近地点: 482.894km
远地点: 483.154km
周期: 94.266分钟
每日圈数: 15.275886
详细信息
固有亮度:
5
最大亮度:
2.5
卫星平台:
Starlink V1.0
覆盖范围:
全球
运营商:
太空探索技术公司
运营商所在国:
美国
制造商(研发单位):
太空探索技术公司
制造商所在国:
美国
使用方式:
暂无
卫星简介
Starlink 计划是 SpaceX 推出的全球卫星互联网项目,通过发射低轨道卫星,为全球尤其是偏远地区提供高速、低延迟的互联网服务。自 2019 年起,Starlink 已部署数千颗卫星,旨在缩小全球数字鸿沟,推动互联网普及。该项目还为军事、航空等行业提供通信支持,带来广泛经济效益。
2D轨道图
3D轨道图
轨道高度分析图
轨道倾角分析图
轨道综合分析图
查看轨道综合分析图